Regional Weather Roundup
Issued by NWS Pendleton, OR

Home | Current Version | Previous Version | Text Only | Print | Product List | Glossary On
Versions: 1 2 3 4 5 6 7 8 9 10 11 12 13 14 15 16 17 18 19 20 21 22 23 24 25 26 27 28 29 30 31 32 33 34 35 36 37 38 39 40 41 42 43 44 45 46 47 48 49 50
000
ASUS46 KPDT 031404
RWRPDT
PENDLETON REGIONAL WEATHER ROUNDUP
NATIONAL WEATHER SERVICE PENDLETON OREGON
700 AM PDT WED JUN 3 2015

NOTE: FAIR INDICATES FEW OR NO CLOUDS BELOW 12,000 FEET WITH NO
SIGNIFICANT WEATHER AND/OR OBSTRUCTIONS TO VISIBILITY.

# INDICATES UNOFFICIAL STATION AND DATA

WAZ520-031510-
EAST SLOPES OF WASHINGTON CASCADES

CITY            SKY/WX      TMP DP  RH  WIND    PRES   REMARKS
#BULLFROG       N/A         51  43  74  W2      N/A
#BULLFROG 2SW   N/A         48  43  83  N5      27.63R
#BUMPING DAM    N/A         45  N/A N/A S1      N/A
#CLE ELUM HS    N/A         49  42  77  W7      29.95S
#CLE ELUM LAKE  N/A         48  42  80  CALM    29.96R
#CLIFFDEL 2NW   N/A         47  41  79  CALM    N/A
#EASTON DOT     N/A         47  44  89  CALM    N/A
#ELK HTS DOT    N/A         49  49  100 W7      N/A
#GLENWOOD       N/A         47  45  93  CALM    29.99R
#NELSON         N/A         50  44  80  CALM    30.00R
#NELSON 3SW     N/A         48  41  77  CALM    30.18R
#NILE           N/A         51  42  71  W2      29.24S
#PEOH POINT     N/A         41  41  100 W5      N/A
#RONALD 2NW     N/A         51  30  44  CALM    29.88S
#SNOWDEN        N/A         47  39  74  CALM    N/A
#TEANAWAY 4NE   N/A         52  46  80  N3      N/A
#TROUT LAKE 1NE N/A         51  45  80  W7      30.00S
$$

WAZ521-031510-
SIMCOE HIGHLANDS

CITY            SKY/WX      TMP DP  RH  WIND    PRES   REMARKS
#BICKLETON HS   N/A         47  41  79  W2      N/A
#SATUS PASS DOT N/A         45  42  89  W1      N/A
#CENTERVILLE 4W N/A         53  46  77  W13     29.77R
#CENTERVILLE 1SWN/A         50  44  80  SW10    29.96F
#GOLDENDALE     N/A         50  45  83  W2      N/A
#GOLDENDALE 5WNWN/A         51  45  80  W1      29.99
#GOODNOE HILLS  N/A         53  48  83  W9      N/A
#LYLE 6NE       N/A         51  46  83  SW6     29.99R
$$

WAZ026-031510-
KITTITAS VALLEY

CITY            SKY/WX      TMP DP  RH  WIND    PRES   REMARKS
#ELLENSBURG CWU N/A         52  43  71  NW14    29.91S
#ELLENSBURG 3NE N/A         51  43  74  N7      29.98F
#ELLENSBURG 1E  N/A         52  41  66  NW1     N/A
#KITTITAS 4N    N/A         52  43  71  N6      28.29R
#KITTITAS 3S    N/A         52  44  74  W2      29.94S
#MANASTASH RDG  N/A         48  48  100 N6      N/A
#ROCKY CYN DOT  N/A         52  44  74  W16     N/A
#RYEGRASS DOT   N/A         49  42  77  W14     N/A    WCI 44
#THORP 6N       N/A         49  42  77  N9      29.98S
$$

WAZ027-031510-
YAKIMA VALLEY

CITY            SKY/WX      TMP DP  RH  WIND    PRES   REMARKS
SUNNYSIDE AP    CLOUDY      55  48  77  CALM    29.99R
#DONALD 2NE     N/A         58  38  47  CALM    28.84R
#GRANDVIEW      N/A         56  47  72  CALM    29.98R
#MABTON         N/A         57  51  80  CALM    29.98S
#MOXEE 2E       N/A         56  34  43  W2      29.93S
#NACHES 2SW     N/A         54  44  69  W7      29.99S
#PARKER DOT     N/A         58  43  57  S5      N/A
#SELAH 8E       N/A         50  42  74  S3      N/A
#TERRACE HTS    N/A         56  43  62  N1      29.92R
#TOPPENISH      N/A         57  48  72  CALM    29.88S
#I82 S UMTANUM RN/A         54  42  64  W8      N/A
#UNION GAP DOT  N/A         57  43  59  N1      N/A
#WAPATO 4NE     N/A         58  38  47  CALM    28.84R
#WEST VALLEY    N/A         56  43  62  CALM    29.94R
#W YAKIMA       N/A         56  44  64  N1      29.95S
#WHITE SWAN 5E  N/A         54  48  80  CALM    29.96S
#WILEY CITY 3W  N/A         51  42  71  CALM    29.95S
#ZILLAH DOT     N/A         55  48  77  NE2     N/A
$$

WAZ028-031510-
LOWER COLUMBIA BASIN...WASHINGTON

CITY            SKY/WX      TMP DP  RH  WIND    PRES   REMARKS
RICHLAND AWOS   CLOUDY      59  48  67  S3      29.99R
#BASIN CITY 5SW N/A         56  50  80  S2      29.98R
#BENTON CITY    N/A         56  47  72  CALM    29.88R
#CONNELL 5N     N/A         59  50  72  SE1     29.96R
#CONNELL 5NW    N/A         54  49  83  S6      29.92S
#ELTOPIA 6NW    N/A         55  51  86  S2      28.95S
#KAHLOTUS       N/A         53  47  80  W8      29.96R
#KENNEWICK      N/A         48  43  83  N5      27.63R
#KENNEWICK 3S   N/A         53  48  83  SE7     29.96S
#PATERSON       N/A         58  48  69  W8      29.98R
#PROSSER DOT    N/A         58  49  72  E5      N/A
#PROSSER        N/A         57  47  69  CALM    29.96S
#SAGEMOOR 2W    N/A         57  50  77  CALM    29.82R
#TOUCHET 2S     N/A         57  47  69  NE2     29.99R
#WEST PASCO     N/A         58  48  69  S2      29.98R
$$

WAZ029-031510-
FOOTHILLS OF THE BLUES...WASHINGTON

CITY            SKY/WX      TMP DP  RH  WIND    PRES   REMARKS
WALLA WALLA AP  MOCLDY      58  44  60  S16     30.03R
#DAYTON SCHOOL  N/A         54  40  59  SW3     30.03S
#LOWDEN 2SE     N/A         59  46  62  SW7     29.98S
#PLEASANT VIEW 1N/A         51  45  80  S9      30.01R
#PRESCOTT       N/A         54  47  77  CALM    29.99R
#SUDBURY        N/A         59  N/A N/A CALM    N/A
#WHITMAN COLLEGEN/A         57  46  67  S1      30.04S
#WAITSBURG 8N   N/A         53  28  38  S8      29.88R
#WALLA WALLA U  N/A         59  47  64  S3      29.99S
#WHITMAN MISSIONN/A         58  48  69  S1      30.02R
$$

WAZ030-031510-
BLUE MOUNTAINS...WASHINGTON

CITY            SKY/WX      TMP DP  RH  WIND    PRES   REMARKS
#DIXIE 5SE      N/A         48  40  74  S9      29.97R
$$

ORZ009-041-WAZ024-031510-
COLUMBIA RIVER GORGE

CITY            SKY/WX      TMP DP  RH  WIND    PRES   REMARKS
HOOD RIVER AP   CLOUDY      55  48  77  CALM    30.05R
#ARLINGTON AIRPON/A         55  46  72  W9      29.83R
#ARLINGTON HS   N/A         58  46  64  W3      29.92S
#CELILO DOT     N/A         59  48  67  SW6     N/A
#MARYHILL       N/A         54  47  77  CALM    N/A
#MOSIER 1S      N/A         54  44  69  N6      30.03S
#MURDOCK        N/A         59  53  80  W15     30.05R
#RUFUS DOT      N/A         58  47  67  S5      N/A

$$

ORZ510-031510-
NORTH CENTRAL OREGON

CITY            SKY/WX      TMP DP  RH  WIND    PRES   REMARKS
#CHENOWITH 1W   N/A         49  47  93  W17     N/A    WCI 43
#COW CYN RST AREN/A         46  N/A N/A S2      N/A
#DUFUR 9E       N/A         51  44  77  CALM    30.07R
#GRASS VALLEY 1SN/A         46  43  89  S5      30.06R
#KENT DOT       N/A         44  38  79  S2      N/A
#MAUPIN SCHOOL  N/A         51  44  77  CALM    30.06R
#MORO SCHOOL    N/A         49  47  93  CALM    30.05S
#SHANIKO 5WSW   N/A         44  38  79  S7      N/A
#SHANIKO 4NW    N/A         45  40  82  SW2     30.04S
#TYGH VALLEY 2NEN/A         50  45  83  CALM    30.02R
#WAPANITIA AIRPON/A         53  45  74  W7      30.02R
#WASCO DOT      N/A         52  47  83  SW2     N/A
#WASCO 5NE      N/A         52  46  80  SW7     30.01R
$$

ORZ511-031510-
CENTRAL OREGON

CITY            SKY/WX      TMP DP  RH  WIND    PRES   REMARKS
BEND AIRPORT    CLOUDY      46  39  76  CALM    30.07R
MADRAS AIRPORT  MOCLDY      46  43  89  S5      30.08R
PRINEVILLE AP   PTCLDY      39  39  100 CALM    30.06S
#BEND 1SW       N/A         42  40  93  CALM    N/A
#BEND-AWBREY    N/A         43  40  89  S3      30.02R
#BEND-KIM LN    N/A         43  40  89  SW1     30.03S
#CROOKED RVR RANN/A         50  44  80  CALM    30.00S
#LAKE BILLY CHINN/A         47  30  51  NW3     30.15R
#POWELL BUTTE 3EN/A         40  38  92  S1      N/A
#POWELL BUTTE   N/A         46  42  86  N1      29.69R
#PRINEVILLE 3N  N/A         44  42  93  NE2     29.98R
#WARM SPRINGS   N/A         48  43  83  CALM    30.03S

$$


ORZ509-031510-
EAST SLOPES OF OREGON CASCADES

CITY            SKY/WX      TMP DP  RH  WIND    PRES   REMARKS
#BLUE BOX PASS  N/A         42  -9  11  CALM    N/A
#CAMP SHERMAN   N/A         40  37  89  CALM    30.06R
#LA PINE 4NW    N/A         35  32  89  CALM    30.06S
#MT BACHELOR-MIDN/A         98  N/A N/A CALM    N/A
#SISTERS AIRPOR N/A         43  42  96  CALM    30.17S
#SISTERS ODOT   N/A         42  N/A N/A CALM    N/A
#SISTERS 3N     N/A         44  38  79  CALM    30.07R
#SUNRIVER       N/A         39  38  96  CALM    29.92R
#TUMALO 3W      N/A         44  39  82  S1      29.91S
#WANOGA BUTTE D N/A         39  32  76  CALM    N/A

$$

ORZ044-031510-
LOWER COLUMBIA BASIN...OREGON

CITY            SKY/WX      TMP DP  RH  WIND    PRES   REMARKS
#BOARDMAN SCHOOLN/A         58  47  67  SW12    30.02R
#ECHO 8SW       N/A         58  44  60  W14     30.02R
#IONE SCHOOL    N/A         56  41  57  S7      30.00R
#IRRIGON 4NW    N/A         59  49  69  S10     N/A
#UMATILLA SCHOOLN/A         57  51  80  W2      30.03S
#UMATILLA       N/A         59  45  60  SW7     29.93R
$$

ORZ507-031510-
NORTHERN FOOTHILLS OF THE BLUES

CITY            SKY/WX      TMP DP  RH  WIND    PRES   REMARKS
#ADAMS 3WNW     N/A         50  46  86  S1      30.00S
#ATHENA         N/A         53  44  71  S1      30.01S
#CAYUSE         N/A         55  45  69  SW2     29.99S
#HELIX SCHOOL   N/A         52  46  80  SW5     29.98S
#HELIX 3N       N/A         51  44  77  N10     29.99S
#HOLDMAN 5SE    N/A         56  46  69  NE2     30.02S
#HOLDMAN 6E     N/A         53  43  69  NE14    29.80S
#M-F FERNDALE   N/A         57  45  64  CALM    30.01S
#M-F GROVE ELEM N/A         57  43  59  CALM    30.01S
#M-FREEWATER 5SEN/A         55  44  66  CALM    30.02S
#PENDLETON DNTN N/A         56  44  64  CALM    30.02S
#PDT AQUATIC CTRN/A         56  41  57  CALM    30.01S
#PDT SUNRIDGE   N/A         53  47  80  CALM    30.03F
#PENDLETON 7NW  N/A         55  45  69  W5      29.97R
#PILOT ROCK     N/A         55  42  61  S2      30.04S
#TUTUILLA       N/A         54  49  83  S1      30.02R
#UMAPINE 2E     N/A         58  47  67  CALM    30.00R
#WESTON SCHOOL  N/A         53  41  64  W5      29.98S

$$

ORZ508-031510-
SOUTHERN FOOTHILLS OF THE BLUES

CITY            SKY/WX      TMP DP  RH  WIND    PRES   REMARKS
#AJAX           N/A         49  37  63  CALM    29.97S
#CONDON SCHOOL  N/A         46  42  86  CALM    30.01S
#CONDON 5W      N/A         45  40  82  SW6     30.01S
#FOSSIL SCHOOL  N/A         44  40  86  CALM    30.00S
#HEPPNER EOC    N/A         50  42  74  SE6     29.94S
#HEPPNER 4NE    N/A         48  41  77  S2      30.00R
#LEXINGTON 2SE  N/A         54  44  69  S2      30.01R
#RUGGS 5NE      N/A         46  42  86  E1      30.20S
#RUGGS 2SW      N/A         47  41  79  SW7     30.02R

$$

ORZ502-503-031510-
BLUE MOUNTAINS

CITY            SKY/WX      TMP DP  RH  WIND    PRES   REMARKS
#BATTLE MTN DOT N/A         43  43  100 CALM    N/A
#HEPPNER 15SE   N/A         41  38  89  NE3     29.94S
#LONG CREEK HS  N/A         46  46  100 CALM    30.01S
#N POWDER DOT   N/A         49  45  86  NE8     N/A
#PIKES PEAK     N/A         46  40  79  SW20    27.99S WCI 38
#TOLLGATE       N/A         39  38  96  SW2     29.97R
#TROY SCHOOL    N/A         54  48  80  CALM    29.82R
#UKIAH          N/A         46  44  93  CALM    30.03S
#WESTON 4E      N/A         47  41  79  S3      29.94R
$$

ORZ505-031510-
JOHN DAY BASIN

CITY            SKY/WX      TMP DP  RH  WIND    PRES   REMARKS
JOHN DAY        PTCLDY      48  44  86  W6      30.06S
#JOHN DAY KJDY  N/A         50  50  100 CALM    29.80S
#DAYVILLE SCHOOLN/A         47  42  83  CALM    30.03S
#MONUMENT HS    N/A         49  43  80  VRB7    30.06S
#MT. VERNON 5SE N/A         45  43  93  CALM    30.01S
$$

ORZ506-031510-
OCHOCO AND JOHN DAY HIGHLANDS

CITY            SKY/WX      TMP DP  RH  WIND    PRES   REMARKS
#BUCK CREEK DOT N/A         42  42  100 CALM    N/A
#HORSE RIDGE DO N/A         36  33  89  CALM    N/A
#KEYES SMT DOT  N/A         42  39  89  N6      N/A
#PAULINA SCHOOL N/A         44  40  86  NE1     30.03R
#PINE MTN OBS   N/A         38  35  89  S3      N/A
#PRAIRIE CITY   N/A         47  47  100 SW1     30.08S
#SENECA         N/A         43  N/A N/A CALM    N/A
#SENECA 9NW     N/A         38  37  96  CALM    29.99R
$$

ORZ049-031510-
GRANDE RONDE VALLEY

CITY            SKY/WX      TMP DP  RH  WIND    PRES   REMARKS
LA GRANDE       MOCLDY      52  39  61  NW8     30.02S
#ELGIN 3N       N/A         52  43  71  CALM    30.00S
#ELGIN 1E       N/A         52  48  86  CALM    N/A
#ISLAND CITY 4N N/A         53  52  96  CALM    30.06S
#LADD CYN DOT   N/A         52  44  74  NE2     N/A
#LA GRANDE ELEM N/A         53  44  71  W1      30.05S
#UNION 1S       N/A         53  47  80  CALM    29.90R
$$

ORZ050-031510-
WALLOWA COUNTY

CITY            SKY/WX      TMP DP  RH  WIND    PRES   REMARKS
#ENTERPRISE HS  N/A         49  46  89  CALM    30.05R
#IMNAHA SCHOOL  N/A         56  51  83  SW1     30.00S
#IMNAHA 10S     N/A         49  46  89  CALM    30.01S
#JOSEPH 3N      N/A         47  41  79  W1      30.05R
#JOSEPH 3W      N/A         46  45  96  CALM    29.88R
#LOSTINE        N/A         49  46  89  CALM    29.78R
#MT HOWARD 8000 N/A         36  35  96  CALM    30.08R
#PROMISE 1S     N/A         47  41  79  CALM    30.07R
#WALLOWA SCHOOL N/A         50  47  89  CALM    30.89S



$$



USA.gov is the U.S. government's official web portal to all federal, state and local government web resources and services.